Tracking 34794 objects as of 19-Jul-2026
HD Live streaming from Space Station
objects crossing your sky now

STARLINK-32389

Track STARLINK-32389 now!
10-day predictions
STARLINK-32389 is classified as:


NORAD ID: 61549
Int'l Code: 2024-184T
Perigee: 481.3 km
Apogee: 483.4 km
Inclination: 53.2 °
Period: 94.1 minutes
Semi major axis: 6853 km
RCS: Unknown
Launch date: October 15, 2024
Source: United States (US)
Launch site: AIR FORCE WESTERN TEST RANGE (AFWTR)
Your satellite tracking list
Your tracking list is empty




NASA's NSSDC Master Catalog

Two Line Element Set (TLE):
1 61549U 24184T   26199.49504414 -.00001306  00000-0 -31979-4 0  9997
2 61549  53.1602 126.3870 0001572  98.5646 261.5533 15.30196949 98531
Source of the keplerian elements: AFSPC